Dewpoint
1 -1 -2 -4 -5 -9 -11 -11 -10 -7 1 6 8 9 16 12 11 12 13 13 12 13 13 13 13 13 12 12 13 14 14 13 15 15 15 15 14 14 14 14 16 16 17 17
-3 -2 -5 -7 -8 -7 -9 -8 -9 -11 -7 5 7 8 11 11 11 12 12 13 12 13 13 13 13 13 12 12 13 14 14 14 14 14 14 14 14 14 14 14 16 16 16 17
-1 -5 -7 -7 -7 -7 -7 -7 -7 -7 -6 -1 5 8 12 16 13 11 12 13 12 12 13 13 14 13 13 12 13 14 14 14 13 13 14 14 14 15 14 15 15 16 16 17
-3 -6 -5 -6 -5 -7 -5 -8 -9 -8 -6 3 4 9 7 15 18 11 11 12 12 11 13 13 14 13 13 12 13 14 14 14 12 12 13 14 14 13 13 14 14 16 16 16
-4 -3 -3 -2 -4 -7 -5 -8 -9 -9 -6 -3 1 5 4 7 11 11 10 11 12 11 12 12 13 13 13 13 13 14 14 14 13 9 12 13 14 13 13 13 14 15 16 16
-2 -7 -6 -4 -4 -5 -5 -6 -7 -8 -8 -5 -1 3 4 6 8 10 10 10 11 11 11 12 13 13 14 14 13 14 15 14 10 9 8 13 13 13 12 13 15 15 15 16
-4 -1 -4 -5 -2 -4 -3 -3 -1 -2 -3 -5 -9 -2 5 2 6 7 9 10 10 11 12 12 12 13 14 14 14 13 14 15 8 8 7 12 13 11 13 14 14 14 13 13
-4 -3 -4 -4 -3 -2 -2 -4 -2 1 -3 -8 -11 -6 -1 0 4 7 8 9 10 11 11 12 12 13 13 14 14 14 14 15 12 5 4 5 7 13 13 15 14 13 13 12
-8 -5 -5 -5 -3 -4 -3 -1 -5 -4 -5 -5 -10 -10 -10 -6 -1 6 9 8 9 10 11 12 12 13 13 14 14 15 15 15 15 10 4 3 4 8 13 14 14 15 14 13
-7 -2 -5 -4 -3 -3 -3 -3 -1 -2 2 1 -3 -6 -9 -7 -3 0 3 5 7 9 10 10 12 13 13 13 14 15 15 16 15 13 8 5 3 3 11 15 15 15 15 15
-8 -6 -7 -7 -1 -1 -1 -0 0 -1 -1 1 1 -1 -6 -7 -3 -1 -0 3 4 5 8 9 10 12 13 13 14 15 15 16 17 16 14 11 9 7 5 14 15 14 16 16
-7 -7 -5 -8 -11 -9 -6 -3 -2 3 4 0 -0 -1 -6 -8 -7 -3 -0 0 2 2 5 6 8 10 12 13 14 14 15 16 17 17 15 13 12 11 12 9 13 15 15 15
-4 -4 -3 -6 -9 -11 -4 -3 -1 -3 -1 3 2 1 -1 -2 -3 -3 -1 -1 0 1 2 3 6 9 11 13 14 14 15 15 16 17 17 16 15 14 13 13 10 12 13 12
-4 -3 -2 -4 -6 -6 -5 -7 -2 -1 1 0 1 0 0 -0 -0 2 5 7 6 6 4 5 6 8 11 13 14 14 14 15 15 16 16 17 17 16 14 13 11 10 11 9
-4 -1 -3 -4 -6 -6 -6 -4 -2 2 2 3 1 1 1 1 -1 5 7 7 7 7 7 5 6 7 9 12 14 15 15 15 15 15 15 16 17 17 16 14 13 12 11 10
-4 1 -0 -1 -2 -5 -5 -7 -6 -5 -3 -1 1 2 0 0 2 3 3 8 8 8 9 10 9 10 10 11 14 15 15 15 15 15 15 15 16 17 16 15 14 13 11 9
-0 2 1 2 -4 -5 -3 -5 -8 -8 -7 -5 0 1 0 1 2 7 9 9 9 9 10 11 12 12 11 10 12 15 16 16 15 16 15 15 16 17 16 13 12 10 10 10
-4 0 3 5 -1 2 -7 -8 -5 -3 -6 -8 -6 -4 -2 1 4 5 8 8 8 9 10 11 12 13 13 12 10 11 14 16 16 16 16 16 16 17 15 15 13 11 11 11
-7 -5 4 4 0 -3 -6 4 4 4 -1 3 -6 -6 -3 4 5 4 5 8 7 9 10 10 11 13 14 14 13 12 13 15 17 17 16 17 16 17 17 13 12 13 12 12
-6 -6 -2 -1 3 1 4 3 3 3 3 5 5 5 5 5 7 7 6 6 7 8 9 10 12 14 14 15 15 14 12 14 16 17 17 17 17 18 18 15 12 11 12 11
3 3 2 1 1 -3 0 0 1 6 5 4 5 5 5 6 6 7 6 6 7 8 9 10 11 15 16 17 17 16 14 13 15 17 17 18 18 18 18 18 17 14 12 16
4 5 6 4 3 1 0 0 2 4 4 4 4 4 5 5 6 6 6 6 6 7 8 10 10 14 16 18 19 15 14 14 15 16 17 18 18 18 18 18 18 18 17 16
5 5 6 4 1 -3 1 1 2 2 3 4 4 4 5 6 6 6 6 6 6 6 7 9 10 11 14 17 18 14 14 15 16 17 17 18 18 18 18 18 18 19 18 18
2 2 4 3 -2 -1 2 2 4 4 4 4 4 5 5 7 7 6 6 6 6 6 7 8 9 11 11 15 17 18 17 17 17 17 18 18 18 18 18 19 19 18 18 18
3 2 4 4 2 2 2 3 4 4 4 4 4 4 5 6 7 7 7 7 6 6 6 8 9 10 10 11 15 17 18 18 17 17 18 18 18 18 18 18 18 18 17 17
2 2 3 3 1 2 2 3 3 4 4 4 4 5 5 6 6 6 7 7 6 6 7 7 9 5 6 6 11 15 17 17 17 17 18 18 18 18 18 18 18 18 17 17
Wind_Speed
21 15 19 23 20 21 15 17 21 18 16 17 22 16 17 18 22 23 25 26 29 33 33 31 31 30 28 27 26 26 25 24 22 18 17 16 14 13 10 9 7 7 6 5
14 21 20 19 17 19 20 14 16 20 17 16 19 17 20 17 19 23 24 25 27 30 33 33 32 32 31 30 28 28 28 27 25 20 18 16 15 13 11 9 9 9 8 7
21 11 20 20 18 17 18 18 15 16 15 18 17 20 19 8 18 22 23 25 26 31 36 36 34 34 33 32 31 30 31 30 28 21 20 18 16 13 13 11 9 10 9 8
21 21 8 22 20 17 18 17 18 16 17 16 20 16 22 27 27 19 20 27 28 30 33 36 35 36 36 35 31 30 31 32 29 29 22 22 19 18 15 13 12 12 11 10
21 20 21 16 20 18 18 16 17 18 16 16 19 18 17 24 20 22 23 27 30 31 35 38 39 38 37 35 34 32 32 33 30 33 25 24 21 18 15 14 15 13 12 11
18 21 20 25 16 15 18 17 16 16 15 17 23 20 19 17 22 22 26 30 30 32 33 34 36 36 36 35 34 33 34 36 36 34 33 28 25 21 17 18 15 14 12 12
17 20 20 19 20 21 16 19 13 14 14 18 23 23 17 18 21 19 27 31 32 33 32 34 35 37 38 39 38 37 38 39 41 38 36 34 30 28 20 18 19 15 14 13
14 17 23 20 20 22 21 21 13 21 16 17 23 25 21 20 12 13 28 34 32 33 33 34 35 37 39 40 42 41 42 43 43 44 41 39 36 25 25 22 18 17 15 13
11 18 6 23 22 23 24 22 23 23 21 18 18 26 20 27 21 16 17 28 32 34 33 34 35 37 38 40 43 44 42 44 43 45 45 42 40 34 26 25 24 18 17 14
8 12 14 10 12 15 21 16 22 17 23 23 18 19 19 23 22 23 14 18 26 34 32 32 35 36 38 39 41 44 44 44 46 45 46 45 42 39 35 30 27 22 21 20
13 8 18 10 8 18 17 19 16 17 21 18 15 13 13 23 19 17 23 22 22 24 30 31 33 35 37 37 37 41 43 43 43 43 44 43 42 40 40 36 31 31 24 21
10 9 14 20 16 20 24 19 27 15 21 20 16 13 8 14 19 23 23 30 27 26 28 28 30 32 35 38 38 39 41 42 41 41 45 45 45 42 39 42 39 33 29 27
11 10 13 17 15 18 17 19 19 24 22 21 18 16 10 5 2 11 25 23 17 12 17 20 21 29 33 37 39 39 39 39 39 39 41 43 45 44 44 38 40 36 33 32
9 14 18 15 6 12 12 24 22 19 17 22 19 19 16 12 8 11 12 11 10 8 6 10 18 25 28 34 39 39 38 37 37 36 39 43 45 45 45 43 40 39 37 35
12 18 19 19 19 16 14 15 13 16 18 19 18 19 15 10 12 15 7 4 5 4 6 5 15 22 26 28 34 39 38 38 38 41 40 44 46 46 44 45 44 42 39 39
15 12 17 19 19 16 19 17 18 19 20 22 22 19 18 19 10 2 2 4 5 6 6 5 5 7 15 23 29 34 41 40 41 41 44 42 44 44 46 46 45 43 42 39
6 8 11 17 18 20 22 23 20 21 22 21 21 18 17 11 6 14 12 5 7 9 9 9 8 8 11 15 24 31 35 39 39 40 41 40 41 43 45 45 44 44 43 40
15 11 5 11 13 16 14 7 10 14 16 23 22 21 19 13 9 14 8 7 10 13 14 13 11 11 11 14 19 26 31 38 41 42 40 42 42 43 44 43 45 45 44 41
17 13 6 7 13 15 9 9 5 4 12 20 20 23 20 15 16 18 10 9 12 14 17 17 16 17 14 17 18 20 31 35 41 42 47 45 45 44 43 47 48 47 45 43
17 16 11 11 13 15 9 4 4 3 11 15 16 15 16 18 8 9 18 17 16 16 17 19 20 22 17 19 18 23 27 36 42 48 47 44 44 43 44 47 49 48 46 45
7 11 15 14 13 14 7 7 4 5 2 12 13 16 16 11 16 24 22 17 17 18 19 17 17 15 17 18 18 27 31 38 41 36 38 41 42 43 42 40 42 46 47 36
5 5 9 12 16 19 9 7 8 8 9 13 14 11 14 17 18 19 19 16 16 18 21 18 17 16 10 13 18 24 34 32 32 33 36 39 39 39 35 39 38 36 39 40
3 4 5 6 7 2 1 7 14 15 12 13 16 16 15 17 17 16 17 16 14 16 18 17 16 16 12 9 6 12 19 27 27 31 33 35 36 37 35 37 37 34 35 32
3 7 4 12 12 12 10 14 9 7 13 17 18 18 16 15 16 14 15 14 14 14 17 17 16 15 13 9 7 7 14 17 23 28 31 32 34 36 39 32 30 30 29 29
2 8 5 7 17 22 4 14 14 17 18 20 20 18 18 15 15 13 14 14 14 13 13 14 15 16 17 9 6 7 9 16 22 24 26 29 30 32 35 32 30 29 28 28
2 3 3 4 19 16 20 16 18 17 18 20 21 20 19 16 15 12 13 13 13 9 10 11 10 13 15 14 6 6 7 14 15 22 26 27 27 27 30 32 29 29 27 30
Wind_Direction
203 218 213 211 224 239 267 238 229 200 206 209 231 199 138 191 174 167 174 179 185 189 187 187 191 190 190 191 192 189 188 191 187 187 183 185 186 182 184 189 191 198 173 178
189 223 228 230 227 234 253 252 264 238 216 209 220 225 177 178 177 176 178 181 186 187 186 188 193 193 194 193 194 193 191 195 190 187 186 187 184 189 190 194 194 184 186 187
226 210 222 239 232 233 233 241 244 248 222 225 242 235 181 109 272 186 183 181 186 189 188 191 193 196 196 196 196 197 195 199 196 187 185 187 190 194 196 186 198 195 191 191
228 235 211 221 234 225 235 224 254 261 244 211 229 244 224 162 210 191 189 178 188 189 195 193 194 197 200 200 199 200 200 201 203 182 194 192 187 191 195 195 196 198 187 190
231 227 241 227 236 224 242 248 217 243 255 257 226 226 254 193 184 186 194 194 190 190 193 194 197 199 200 200 202 201 204 203 200 201 191 199 190 194 195 194 194 187 196 190
262 236 231 236 229 237 240 241 248 227 235 238 238 241 221 213 196 192 190 197 197 195 193 198 199 199 200 201 203 203 206 208 205 208 194 201 201 193 200 198 200 200 204 210
230 241 252 226 224 223 220 221 218 217 224 233 222 236 248 208 193 210 191 198 196 199 200 198 197 198 200 201 203 203 205 211 212 210 207 199 199 197 199 205 202 204 208 213
273 215 218 212 233 223 214 214 219 211 216 226 229 218 229 250 194 172 211 195 197 200 200 201 201 201 200 202 201 203 205 212 213 211 215 211 211 208 204 207 204 207 209 213
286 268 9 213 214 243 209 220 239 252 249 239 212 217 234 224 236 157 274 193 186 195 203 201 203 204 204 203 202 202 204 210 216 213 215 218 216 211 211 208 211 206 211 212
284 283 281 202 244 259 258 242 222 242 247 252 233 222 206 220 219 217 205 228 194 192 198 206 206 205 207 207 205 204 205 208 217 211 215 218 220 219 206 210 212 216 216 216
294 278 263 241 215 238 230 249 255 248 229 244 246 227 237 199 204 223 207 214 210 215 200 203 205 207 207 208 207 207 207 208 209 210 210 213 218 218 217 210 217 217 213 214
312 281 248 248 229 238 244 249 233 239 227 234 252 238 8 191 186 202 227 215 217 216 211 203 201 204 205 206 207 207 207 208 211 209 209 214 215 216 219 220 218 223 225 224
329 236 248 244 261 265 252 246 261 233 252 229 223 234 111 110 284 191 199 226 221 240 231 221 202 199 204 205 207 208 208 209 210 210 210 211 212 216 217 219 220 221 228 230
309 274 279 272 297 343 279 232 244 259 242 238 235 225 152 158 171 85 62 39 28 10 311 264 206 199 201 206 204 207 209 209 209 211 210 212 213 214 218 218 224 223 227 232
250 265 268 278 286 278 280 293 287 255 261 271 260 234 239 304 187 97 87 32 357 341 316 258 236 213 202 205 205 206 210 210 209 208 209 212 213 215 214 218 221 226 227 230
275 257 284 270 267 263 261 246 249 260 262 271 274 276 288 2 17 354 178 93 341 326 319 309 289 270 211 207 209 209 209 211 209 209 210 210 212 212 214 218 220 222 227 228
267 280 283 265 259 250 244 242 239 244 246 248 251 252 271 253 289 356 34 15 331 316 319 313 301 277 257 236 218 216 213 211 212 212 212 210 212 212 215 218 218 222 224 226
243 228 282 279 283 258 250 238 266 266 244 241 250 262 271 301 325 319 348 359 327 320 315 311 303 290 269 253 238 221 217 213 213 211 212 210 210 214 217 213 217 221 224 225
239 245 229 259 262 260 246 45 25 351 229 352 248 230 266 4 329 294 295 350 333 322 315 307 301 286 285 268 249 242 213 215 212 213 211 211 209 211 214 218 220 221 224 227
243 233 248 247 265 256 79 79 25 320 242 13 3 3 353 340 291 41 349 339 337 331 322 316 314 315 298 276 260 237 225 211 213 213 213 211 210 211 213 219 221 224 227 230
271 253 245 230 249 265 62 99 278 238 58 355 352 343 334 328 321 315 317 325 330 334 335 332 325 313 294 286 266 244 226 220 216 215 212 211 211 212 214 216 220 224 228 221
303 263 225 237 247 251 60 309 272 21 318 317 317 316 313 299 297 303 306 319 328 337 343 347 342 348 326 312 289 240 229 224 210 211 208 208 210 210 214 214 218 217 221 222
290 357 317 283 241 201 317 294 296 294 295 298 300 291 294 291 291 293 297 310 321 339 348 353 346 343 351 349 21 230 227 205 200 204 206 208 208 209 205 215 214 214 218 215
351 359 304 315 265 290 319 305 319 332 289 286 281 275 284 292 300 292 300 305 315 331 349 351 353 354 4 26 81 107 170 198 203 204 205 207 208 206 202 210 210 208 211 214
314 302 277 270 292 331 258 341 316 309 295 288 282 276 268 282 286 298 299 308 316 324 353 344 353 358 0 360 58 109 167 179 204 209 207 208 208 209 207 202 205 207 210 216
253 292 301 296 307 292 290 301 303 295 290 283 280 277 259 262 274 281 299 308 314 327 354 340 346 358 3 11 23 115 132 185 199 208 205 205 203 206 202 200 202 201 208 215
Height
1487 1486 1476 1469 1470 1466 1454 1454 1458 1447 1445 1457 1458 1457 1467 1469 1475 1481 1489 1498 1504 1511 1519 1527 1534 1539 1544 1549 1553 1557 1562 1566 1569 1574 1577 1582 1585 1587 1589 1591 1591 1593 1594 1595
1477 1477 1468 1467 1465 1468 1464 1464 1456 1447 1445 1449 1452 1454 1455 1465 1468 1473 1482 1493 1500 1508 1515 1523 1530 1535 1540 1545 1550 1554 1558 1562 1566 1571 1576 1580 1583 1586 1588 1590 1590 1593 1594 1595
1468 1462 1467 1466 1466 1469 1468 1467 1462 1459 1448 1447 1450 1453 1454 1473 1477 1473 1476 1488 1496 1503 1509 1517 1524 1530 1536 1540 1545 1549 1554 1558 1562 1569 1573 1578 1582 1585 1587 1587 1590 1592 1594 1595
1464 1460 1463 1466 1466 1465 1470 1464 1463 1459 1457 1468 1452 1467 1443 1467 1480 1469 1471 1479 1489 1497 1505 1512 1519 1524 1529 1535 1541 1546 1550 1554 1558 1564 1570 1574 1578 1581 1584 1586 1588 1590 1593 1594
1461 1460 1463 1466 1463 1463 1466 1459 1463 1464 1464 1457 1450 1463 1435 1434 1453 1454 1465 1472 1481 1490 1496 1502 1509 1516 1523 1531 1536 1541 1545 1550 1555 1559 1566 1570 1575 1579 1582 1584 1585 1589 1590 1593
1457 1455 1457 1458 1460 1461 1464 1465 1462 1462 1465 1476 1458 1450 1442 1436 1440 1448 1457 1466 1474 1481 1489 1496 1503 1512 1519 1525 1532 1537 1540 1544 1549 1554 1561 1565 1570 1575 1579 1582 1583 1586 1589 1590
1458 1455 1452 1455 1457 1458 1461 1464 1479 1483 1477 1470 1447 1452 1432 1419 1431 1438 1443 1457 1466 1475 1482 1490 1497 1503 1510 1516 1523 1529 1533 1537 1543 1548 1554 1560 1565 1570 1574 1578 1581 1584 1586 1588
1456 1457 1448 1443 1451 1452 1456 1453 1462 1478 1464 1453 1440 1449 1436 1421 1428 1438 1433 1446 1457 1467 1474 1482 1489 1495 1502 1508 1514 1521 1525 1529 1535 1542 1547 1554 1559 1566 1570 1574 1578 1581 1583 1585
1457 1450 1436 1438 1446 1446 1445 1455 1441 1444 1427 1434 1425 1430 1424 1423 1426 1436 1448 1437 1444 1456 1466 1474 1482 1489 1495 1501 1507 1512 1518 1523 1529 1534 1541 1547 1553 1560 1565 1570 1573 1577 1580 1583
1466 1472 1445 1441 1448 1445 1442 1437 1455 1446 1461 1452 1423 1419 1429 1424 1423 1428 1434 1432 1440 1445 1456 1465 1473 1481 1488 1494 1500 1506 1512 1515 1520 1528 1533 1539 1545 1552 1559 1564 1568 1573 1576 1578
1475 1474 1460 1451 1454 1455 1454 1449 1443 1433 1438 1446 1443 1424 1399 1410 1419 1422 1427 1435 1438 1442 1449 1457 1464 1472 1480 1488 1495 1500 1506 1511 1515 1521 1527 1534 1538 1545 1551 1557 1561 1566 1570 1574
1477 1472 1469 1458 1446 1447 1445 1440 1442 1446 1446 1433 1428 1422 1394 1397 1410 1420 1426 1429 1435 1439 1443 1448 1454 1464 1472 1480 1487 1493 1498 1504 1508 1514 1520 1525 1531 1537 1542 1548 1554 1559 1563 1567
1487 1480 1478 1469 1460 1450 1450 1444 1438 1432 1425 1430 1437 1428 1407 1411 1414 1417 1423 1428 1433 1435 1438 1444 1447 1455 1464 1472 1479 1485 1492 1497 1503 1508 1513 1519 1524 1529 1534 1540 1546 1551 1555 1560
1504 1490 1480 1462 1458 1456 1449 1446 1439 1434 1436 1430 1423 1419 1412 1416 1418 1422 1430 1437 1439 1443 1444 1443 1443 1451 1459 1466 1472 1479 1486 1492 1497 1502 1507 1511 1515 1520 1527 1533 1538 1544 1548 1553
1503 1496 1483 1472 1466 1466 1462 1457 1448 1448 1441 1442 1423 1420 1415 1418 1418 1428 1439 1444 1448 1449 1449 1449 1447 1448 1454 1461 1467 1473 1480 1485 1490 1494 1498 1502 1507 1513 1520 1526 1531 1536 1541 1546
1500 1499 1495 1483 1478 1466 1468 1463 1462 1460 1455 1449 1440 1436 1421 1430 1437 1438 1440 1446 1451 1454 1455 1455 1452 1450 1452 1457 1462 1467 1473 1478 1484 1487 1490 1496 1501 1506 1511 1518 1524 1529 1534 1539
1502 1503 1497 1490 1474 1466 1468 1460 1457 1457 1452 1450 1449 1440 1433 1437 1441 1445 1446 1451 1455 1458 1459 1458 1457 1455 1454 1455 1458 1462 1467 1474 1478 1482 1486 1492 1496 1499 1504 1510 1516 1521 1526 1532
1492 1500 1508 1499 1478 1482 1447 1443 1445 1448 1444 1446 1443 1442 1440 1440 1447 1451 1453 1457 1459 1459 1459 1457 1456 1455 1455 1455 1454 1457 1462 1465 1470 1474 1479 1483 1488 1493 1498 1504 1508 1513 1519 1524
1484 1487 1504 1502 1481 1464 1447 1466 1468 1465 1450 1452 1439 1445 1442 1450 1454 1451 1455 1458 1460 1460 1458 1456 1453 1454 1449 1451 1451 1451 1453 1458 1462 1465 1469 1474 1480 1486 1491 1495 1500 1506 1512 1517
1478 1479 1484 1488 1492 1480 1473 1478 1477 1473 1463 1466 1464 1464 1465 1464 1457 1454 1459 1459 1459 1459 1456 1452 1447 1437 1442 1446 1446 1446 1446 1449 1450 1454 1460 1469 1474 1480 1484 1488 1493 1499 1505 1509
1491 1489 1487 1485 1488 1469 1467 1473 1478 1477 1472 1479 1480 1478 1473 1472 1473 1471 1466 1462 1461 1458 1454 1450 1446 1443 1441 1438 1438 1438 1439 1439 1443 1453 1459 1464 1468 1473 1478 1484 1489 1493 1496 1503
1501 1494 1490 1491 1490 1481 1474 1475 1477 1478 1479 1481 1481 1483 1482 1480 1478 1475 1469 1464 1461 1458 1451 1446 1442 1438 1434 1432 1429 1428 1430 1435 1440 1446 1451 1456 1461 1466 1473 1477 1481 1486 1491 1495
1504 1512 1506 1491 1477 1471 1478 1481 1483 1482 1482 1483 1482 1482 1482 1479 1476 1473 1469 1465 1462 1458 1453 1447 1444 1439 1433 1428 1424 1425 1428 1430 1435 1441 1446 1450 1455 1460 1466 1468 1474 1479 1484 1489
1510 1513 1509 1500 1478 1475 1480 1480 1482 1481 1481 1482 1482 1480 1478 1475 1472 1470 1468 1464 1461 1457 1452 1449 1444 1439 1433 1426 1420 1417 1421 1429 1433 1436 1441 1445 1449 1454 1459 1463 1468 1473 1478 1482
1517 1515 1509 1499 1490 1487 1482 1484 1482 1480 1479 1476 1474 1472 1472 1471 1468 1467 1465 1462 1459 1455 1453 1449 1444 1439 1433 1426 1422 1420 1420 1422 1428 1433 1436 1440 1445 1448 1454 1459 1462 1466 1472 1476
1516 1514 1509 1501 1499 1496 1487 1483 1480 1477 1474 1472 1468 1466 1466 1465 1463 1462 1461 1459 1456 1454 1452 1450 1446 1440 1434 1428 1423 1421 1421 1422 1425 1429 1431 1436 1440 1444 1449 1454 1457 1461 1466 1469